GW5273 Weather Reports


Display with metric or nautical units.
time (UTC)temp
F
wind
direction
speed
MPH
gust
MPH
rain 1hr
in
rain 24hr
in
rain mn
in
humidity
%
barometer
mb
20260509234534 55 103 0.0 0.0 0.00 0.00 0.00 74 1013.1
20260509234032 55 358 0.0 0.0 0.00 0.00 0.00 73 1013.0
20260509233529 55 1 0.0 0.0 0.00 0.00 0.00 73 1012.9
20260509233026 55 359 0.0 0.0 0.00 0.00 0.00 74 1012.9
20260509232523 55 359 0.0 0.0 0.00 0.00 0.00 73 1013.0
20260509232020 56 34 0.0 0.0 0.00 0.00 0.00 71 1013.3
20260509231516 56 350 1.0 3.0 0.00 0.00 0.00 70 1013.0
20260509231014 56 25 0.0 0.0 0.00 0.00 0.00 71 1013.3
20260509230511 56 66 0.0 0.0 0.00 0.00 0.00 70 1012.9
20260509230008 56 73 0.0 0.0 0.00 0.00 0.00 69 1013.1
20260509225503 57 29 0.0 0.0 0.00 0.00 0.00 68 1013.1
20260509224959 57 39 0.0 0.0 0.00 0.00 0.00 67 1013.4
20260509224454 57 46 0.0 0.0 0.00 0.00 0.00 66 1013.2
20260509223952 58 77 0.0 1.0 0.00 0.00 0.00 67 1013.1
20260509223448 58 52 0.0 1.0 0.00 0.00 0.00 65 1013.3
20260509222946 59 34 1.0 1.0 0.00 0.00 0.00 63 1013.1
20260509222441 59 66 0.0 1.0 0.00 0.00 0.00 65 1013.4
20260509221937 58 41 0.0 0.0 0.00 0.00 0.00 62 1013.4
20260509221434 58 32 0.0 1.0 0.00 0.00 0.00 64 1013.5
20260509220929 58 358 0.0 0.0 0.00 0.00 0.00 63 1013.5
20260509220425 59 50 0.0 1.0 0.00 0.00 0.00 62 1013.5
20260509215922 59 30 2.0 3.0 0.00 0.00 0.00 60 1013.4
20260509215417 59 46 0.0 1.0 0.00 0.00 0.00 64 1013.4
20260509214915 59 18 0.0 1.0 0.00 0.00 0.00 62 1013.4
20260509214412 58 21 1.0 2.0 0.00 0.00 0.00 61 1013.4
20260509213910 59 18 0.0 1.0 0.00 0.00 0.00 62 1013.2
20260509213405 59 35 0.0 2.0 0.00 0.00 0.00 62 1013.5
20260509212903 59 100 0.0 1.0 0.00 0.00 0.00 62 1013.1
20260509212400 59 53 0.0 1.0 0.00 0.00 0.00 61 1013.3
20260509211856 60 26 1.0 2.0 0.00 0.00 0.00 62 1013.1
20260509211351 60 19 2.0 2.0 0.00 0.00 0.00 62 1013.0
20260509210848 60 110 1.0 1.0 0.00 0.00 0.00 63 1013.2
20260509210346 61 337 1.0 1.0 0.00 0.00 0.00 62 1013.1
20260509205846 61 59 0.0 1.0 0.00 0.00 0.00 61 1013.1
20260509205340 60 43 0.0 0.0 0.00 0.00 0.00 62 1013.0
20260509204838 60 14 1.0 1.0 0.00 0.00 0.00 62 1013.2
20260509204334 60 290 0.0 1.0 0.00 0.00 0.00 64 1013.1
20260509203830 60 5 0.0 1.0 0.00 0.00 0.00 64 1013.0
20260509203327 60 117 0.0 2.0 0.00 0.00 0.00 65 1013.2
20260509202823 60 17 0.0 1.0 0.00 0.00 0.00 61 1013.0
20260509202320 61 271 3.0 4.0 0.00 0.00 0.00 61 1013.1
20260509201819 60 123 0.0 1.0 0.00 0.00 0.00 63 1013.0
20260509201316 60 76 0.0 4.0 0.00 0.00 0.00 64 1012.9
20260509200812 60 215 2.0 2.0 0.00 0.00 0.00 62 1013.0
20260509200308 60 36 1.0 1.0 0.00 0.00 0.00 61 1013.1
20260509195804 60 53 0.0 1.0 0.00 0.00 0.00 61 1013.0
20260509195259 60 49 0.0 1.0 0.00 0.00 0.00 62 1013.1
20260509194759 60 83 0.0 0.0 0.00 0.00 0.00 60 1012.9
20260509194255 60 107 0.0 0.0 0.00 0.00 0.00 65 1013.0
20260509193752 59 48 0.0 0.0 0.00 0.00 0.00 60 1013.1
20260509193247 59 28 0.0 1.0 0.00 0.00 0.00 62 1013.1
20260509192743 59 86 0.0 1.0 0.00 0.00 0.00 60 1013.2
20260509192243 59 84 0.0 2.0 0.00 0.00 0.00 60 1013.1
20260509191739 59 79 0.0 0.0 0.00 0.00 0.00 59 1013.0
20260509191236 60 74 0.0 0.0 0.00 0.00 0.00 58 1012.6
20260509190732 61 153 0.0 1.0 0.00 0.00 0.00 57 1012.9
20260509190229 62 70 0.0 0.0 0.00 0.00 0.00 54 1012.9
20260509185726 62 78 0.0 1.0 0.00 0.00 0.00 54 1012.6
20260509185223 62 53 0.0 2.0 0.00 0.00 0.00 59 1012.6
20260509184720 62 40 1.0 1.0 0.00 0.00 0.00 52 1012.8
20260509184217 62 106 0.0 1.0 0.00 0.00 0.00 54 1012.9
20260509183713 62 34 0.0 1.0 0.00 0.00 0.00 55 1012.8
20260509183209 62 53 0.0 1.0 0.00 0.00 0.00 53 1012.6
20260509182704 62 53 1.0 2.0 0.00 0.00 0.00 53 1012.5
20260509182202 62 55 1.0 2.0 0.00 0.00 0.00 53 1012.9
20260509181700 64 51 1.0 1.0 0.00 0.00 0.00 51 1012.6
20260509181157 64 9 1.0 2.0 0.00 0.00 0.00 52 1012.8
20260509180654 64 54 2.0 2.0 0.00 0.00 0.00 50 1012.8
20260509180150 64 86 0.0 1.0 0.00 0.00 0.00 53 1012.9
20260509175646 63 49 1.0 2.0 0.00 0.00 0.00 50 1012.9
20260509175143 61 71 1.0 2.0 0.00 0.00 0.00 56 1013.0
20260509174639 61 65 0.0 1.0 0.00 0.00 0.00 54 1013.1
20260509174134 62 120 1.0 1.0 0.00 0.00 0.00 56 1013.1
20260509173630 60 342 0.0 0.0 0.00 0.00 0.00 55 1013.0
20260509173126 60 352 1.0 3.0 0.00 0.00 0.00 55 1012.9
20260509172623 61 332 3.0 3.0 0.00 0.00 0.00 54 1013.3
20260509172119 60 18 1.0 4.0 0.00 0.00 0.00 56 1013.2
20260509171615 59 145 1.0 1.0 0.00 0.00 0.00 60 1013.5
20260509171111 58 54 0.0 1.0 0.00 0.00 0.00 60 1013.3
20260509170607 58 31 2.0 2.0 0.00 0.00 0.00 58 1013.3
20260509170104 57 22 1.0 2.0 0.00 0.00 0.00 63 1013.4
20260509165602 56 24 0.0 1.0 0.00 0.00 0.00 63 1013.5
20260509165058 56 99 0.0 0.0 0.00 0.00 0.00 62 1013.6
20260509164554 56 125 0.0 0.0 0.00 0.00 0.00 65 1013.5
20260509164050 56 215 0.0 0.0 0.00 0.00 0.00 64 1013.6
20260509163549 56 215 0.0 0.0 0.00 0.00 0.00 63 1013.9
20260509163048 56 198 0.0 0.0 0.00 0.00 0.00 64 1013.7
20260509162546 55 198 0.0 0.0 0.00 0.00 0.00 64 1013.9
20260509162042 55 341 0.0 1.0 0.00 0.00 0.00 64 1013.6
20260509161538 56 346 0.0 0.0 0.00 0.00 0.00 65 1013.4
20260509161033 56 345 0.0 0.0 0.00 0.00 0.00 62 1013.6
20260509160530 56 22 0.0 1.0 0.00 0.00 0.00 60 1013.7
20260509160025 56 351 1.0 2.0 0.00 0.00 0.00 59 1013.6
20260509155521 56 133 0.0 2.0 0.00 0.00 0.00 63 1013.7
20260509155017 55 20 0.0 2.0 0.00 0.00 0.00 60 1014.0
20260509154514 56 23 0.0 0.0 0.00 0.00 0.00 61 1014.1
20260509154012 55 23 0.0 1.0 0.00 0.00 0.00 62 1014.0
20260509153508 55 351 0.0 0.0 0.00 0.00 0.00 62 1014.1
20260509153005 54 351 0.0 0.0 0.00 0.00 0.00 65 1014.2
20260509152501 54 351 0.0 1.0 0.00 0.00 0.00 64 1014.3
20260509151958 54 302 0.0 0.0 0.00 0.00 0.00 63 1014.3
20260509151454 53 351 0.0 0.0 0.00 0.00 0.00 64 1014.3
20260509150953 54 351 0.0 0.0 0.00 0.00 0.00 64 1014.3
20260509150450 54 313 0.0 0.0 0.00 0.00 0.00 66 1014.1
20260509145948 55 309 2.0 2.0 0.00 0.00 0.00 61 1013.9
20260509145443 55 234 0.0 1.0 0.00 0.00 0.00 61 1014.1
20260509144938 55 223 0.0 0.0 0.00 0.00 0.00 66 1013.9
20260509144436 54 223 0.0 0.0 0.00 0.00 0.00 70 1014.1
20260509143932 53 224 0.0 1.0 0.00 0.00 0.00 70 1014.2
20260509143430 53 191 0.0 1.0 0.00 0.00 0.00 72 1014.0
20260509142925 53 217 0.0 2.0 0.00 0.00 0.00 70 1013.9
20260509142422 53 202 0.0 1.0 0.00 0.00 0.00 73 1013.7
20260509141918 52 219 0.0 2.0 0.00 0.00 0.00 72 1014.1
20260509141415 53 110 0.0 2.0 0.00 0.00 0.00 79 1014.1
20260509140912 52 307 0.0 1.0 0.00 0.00 0.00 76 1014.0
20260509140408 51 250 0.0 0.0 0.00 0.00 0.00 77 1014.1
20260509135907 51 246 0.0 1.0 0.00 0.00 0.00 75 1014.0
20260509135404 51 277 1.0 1.0 0.00 0.00 0.00 76 1014.1
20260509134901 51 221 0.0 1.0 0.00 0.00 0.00 81 1014.2
20260509134358 51 309 0.0 0.0 0.00 0.00 0.00 79 1014.2
20260509133855 50 309 0.0 0.0 0.00 0.00 0.00 79 1014.2
20260509133351 50 309 0.0 0.0 0.00 0.00 0.00 78 1014.2
20260509132851 50 324 0.0 0.0 0.00 0.00 0.00 79 1014.1
20260509132348 50 333 0.0 0.0 0.00 0.00 0.00 81 1014.3
20260509131845 49 331 0.0 0.0 0.00 0.00 0.00 81 1014.2
20260509131342 49 332 0.0 0.0 0.00 0.00 0.00 80 1014.0
20260509130838 49 331 0.0 0.0 0.00 0.00 0.00 79 1014.0
20260509130334 49 333 0.0 0.0 0.00 0.00 0.00 81 1014.1
20260509125831 48 334 0.0 0.0 0.00 0.00 0.00 82 1014.0
20260509125327 48 334 0.0 0.0 0.00 0.00 0.00 86 1013.9
20260509124824 48 334 0.0 0.0 0.00 0.00 0.00 86 1014.0
20260509124320 48 334 0.0 0.0 0.00 0.00 0.00 87 1014.1
20260509123819 47 334 0.0 0.0 0.00 0.00 0.00 87 1014.0
20260509123316 47 340 0.0 0.0 0.00 0.00 0.00 86 1014.1
20260509122811 47 341 0.0 0.0 0.00 0.00 0.00 89 1013.7
20260509122308 47 347 0.0 0.0 0.00 0.00 0.00 89 1014.1
20260509121805 46 347 0.0 0.0 0.00 0.00 0.00 89 1014.2
20260509121302 46 347 0.0 0.0 0.00 0.00 0.00 89 1014.1
20260509120801 46 347 0.0 0.0 0.00 0.00 0.00 88 1014.2
20260509120258 46 347 0.0 0.0 0.00 0.00 0.00 87 1014.4
20260509115756 46 347 0.0 0.0 0.00 0.00 0.00 87 1014.2
20260509115253 46 347 0.0 0.0 0.00 0.00 0.00 86 1014.4
20260509114751 45 347 0.0 0.0 0.00 0.00 0.00 87 1014.3
20260509114249 45 347 0.0 0.0 0.00 0.00 0.00 87 1014.4
20260509113748 45 347 0.0 0.0 0.00 0.00 0.00 87 1014.4
20260509113244 44 347 0.0 0.0 0.00 0.00 0.00 88 1014.4
20260509112741 44 347 0.0 0.0 0.00 0.00 0.00 86 1014.4
20260509112238 44 347 0.0 0.0 0.00 0.00 0.00 86 1014.2
20260509111736 44 348 0.0 0.0 0.00 0.00 0.00 89 1014.5
20260509111232 44 348 0.0 0.0 0.00 0.00 0.00 90 1014.4
20260509110730 43 348 0.0 0.0 0.00 0.00 0.00 90 1014.3
20260509110226 43 348 0.0 0.0 0.00 0.00 0.00 90 1014.4
20260509105724 43 348 0.0 0.0 0.00 0.00 0.00 89 1014.3
20260509105222 43 348 0.0 0.0 0.00 0.00 0.00 88 1014.3
20260509104718 43 348 0.0 0.0 0.00 0.00 0.00 88 1014.4
20260509104215 43 348 0.0 0.0 0.00 0.00 0.00 88 1014.2
20260509103714 42 348 0.0 0.0 0.00 0.00 0.00 85 1014.1
20260509103210 42 348 0.0 0.0 0.00 0.00 0.00 86 1014.3
20260509102709 43 19 0.0 0.0 0.00 0.00 0.00 87 1014.4
20260509102205 43 19 0.0 0.0 0.00 0.00 0.00 87 1014.4
20260509101701 43 19 0.0 0.0 0.00 0.00 0.00 87 1014.3
20260509101158 43 75 0.0 0.0 0.00 0.00 0.00 86 1014.3
20260509100656 43 79 0.0 0.0 0.00 0.00 0.00 85 1014.1
20260509100152 42 79 0.0 0.0 0.00 0.00 0.00 90 1014.0
20260509095649 42 79 0.0 0.0 0.00 0.00 0.00 88 1014.1
20260509095146 43 79 0.0 0.0 0.00 0.00 0.00 89 1014.0
20260509094643 43 79 0.0 0.0 0.00 0.00 0.00 89 1014.3
20260509094140 43 79 0.0 0.0 0.00 0.00 0.00 88 1014.2
20260509093639 44 77 0.0 0.0 0.00 0.00 0.00 86 1013.9
20260509093135 44 77 0.0 0.0 0.00 0.00 0.00 86 1014.3
20260509092633 44 77 0.0 0.0 0.00 0.00 0.00 86 1014.2
20260509092131 44 77 0.0 0.0 0.00 0.00 0.00 85 1014.5
20260509091629 45 77 0.0 0.0 0.00 0.00 0.00 84 1014.4
20260509091125 45 77 0.0 0.0 0.00 0.00 0.00 77 1014.3
20260509090623 46 77 0.0 0.0 0.00 0.00 0.00 77 1014.3
20260509090120 46 77 0.0 0.0 0.00 0.00 0.00 81 1014.3
20260509085618 46 77 0.0 0.0 0.00 0.00 0.00 78 1014.0
20260509085113 46 77 0.0 0.0 0.00 0.00 0.00 79 1014.2
20260509084611 46 77 0.0 0.0 0.00 0.00 0.00 76 1014.2
20260509084107 46 77 0.0 0.0 0.00 0.00 0.00 75 1014.3
20260509083605 46 77 0.0 0.0 0.00 0.00 0.00 76 1014.2
20260509083101 46 77 0.0 0.0 0.00 0.00 0.00 77 1014.5
20260509082559 46 77 0.0 0.0 0.00 0.00 0.00 80 1014.3
20260509082055 47 77 0.0 0.0 0.00 0.00 0.00 79 1014.4
20260509081552 47 77 0.0 0.0 0.00 0.00 0.00 76 1014.3
20260509081049 47 75 0.0 0.0 0.00 0.00 0.00 78 1014.3
20260509080547 46 141 0.0 0.0 0.00 0.00 0.00 81 1014.3
20260509080045 46 141 0.0 0.0 0.00 0.00 0.00 80 1014.4
20260509075542 47 141 0.0 0.0 0.00 0.00 0.00 78 1014.3
20260509075040 46 141 0.0 0.0 0.00 0.00 0.00 79 1014.4
20260509074537 46 144 0.0 0.0 0.00 0.00 0.00 80 1014.3
20260509074033 46 145 0.0 0.0 0.00 0.00 0.00 80 1014.3
20260509073530 46 146 0.0 0.0 0.00 0.00 0.00 80 1014.3
20260509073026 46 154 0.0 0.0 0.00 0.00 0.00 79 1014.3
20260509072523 46 154 0.0 0.0 0.00 0.00 0.00 78 1014.4
20260509072020 46 154 0.0 0.0 0.00 0.00 0.00 79 1014.4
20260509071517 46 154 0.0 0.0 0.00 0.00 0.00 80 1014.4
20260509071014 46 154 0.0 0.0 0.00 0.00 0.00 78 1014.5
20260509070511 46 154 0.0 0.0 0.00 0.00 0.00 78 1014.4
20260509070008 46 155 0.0 0.0 0.00 0.00 0.00 79 1014.4
20260509065503 46 155 0.0 0.0 0.00 0.00 0.00 81 1014.3
20260509064959 45 177 0.0 0.0 0.00 0.00 0.00 80 1014.3
20260509064457 45 177 0.0 0.0 0.00 0.00 0.00 83 1014.3
20260509063955 45 177 0.0 0.0 0.00 0.00 0.00 84 1014.4
20260509063450 44 177 0.0 0.0 0.00 0.00 0.00 87 1014.4
20260509062948 44 177 0.0 0.0 0.00 0.00 0.00 91 1014.3
20260509062445 44 139 0.0 0.0 0.00 0.00 0.00 92 1014.5
20260509061942 43 139 0.0 0.0 0.00 0.00 0.00 92 1014.4
20260509061439 43 138 0.0 0.0 0.00 0.00 0.00 93 1014.7
20260509060936 43 139 0.0 0.0 0.00 0.00 0.00 92 1014.6
20260509060434 42 57 0.0 0.0 0.00 0.00 0.00 92 1014.7
20260509055929 42 56 0.0 0.0 0.00 0.00 0.00 92 1014.6
20260509055424 42 54 0.0 0.0 0.00 0.00 0.00 92 1015.1
20260509054921 42 52 0.0 0.0 0.00 0.00 0.00 92 1014.7
20260509054418 42 52 0.0 0.0 0.00 0.00 0.00 92 1014.8
20260509053917 42 52 0.0 0.0 0.00 0.00 0.00 91 1014.9
20260509053414 42 52 0.0 0.0 0.00 0.00 0.00 91 1015.1
20260509052906 42 52 0.0 0.0 0.00 0.00 0.00 91 1015.1
20260509052403 42 52 0.0 0.0 0.00 0.00 0.00 91 1014.9
20260509051901 42 52 0.0 0.0 0.00 0.00 0.00 90 1015.1
20260509051359 42 52 0.0 0.0 0.00 0.00 0.00 89 1015.3
20260509050855 43 50 0.0 0.0 0.00 0.00 0.00 88 1015.3
20260509050352 43 50 0.0 0.0 0.00 0.00 0.00 88 1015.3
20260509045849 43 50 0.0 0.0 0.00 0.00 0.00 88 1015.3
20260509045346 43 50 0.0 0.0 0.00 0.00 0.00 88 1015.6
20260509044843 43 49 0.0 0.0 0.00 0.00 0.00 86 1015.4
20260509044340 43 56 0.0 0.0 0.00 0.00 0.00 86 1015.1
20260509043837 43 61 0.0 0.0 0.00 0.00 0.00 88 1015.3
20260509043333 43 61 0.0 0.0 0.00 0.00 0.00 87 1015.5
20260509042829 43 61 0.0 0.0 0.00 0.00 0.00 87 1015.5
20260509042326 43 61 0.0 0.0 0.00 0.00 0.00 89 1015.3
20260509041823 43 61 0.0 0.0 0.00 0.00 0.00 86 1015.4
20260509041320 43 61 0.0 0.0 0.00 0.00 0.00 87 1015.5
20260509040818 43 61 0.0 0.0 0.00 0.00 0.00 87 1015.6
20260509040315 43 61 0.0 0.0 0.00 0.00 0.00 86 1015.6
20260509035812 43 61 0.0 0.0 0.00 0.00 0.00 87 1015.4
20260509035309 43 61 0.0 0.0 0.00 0.00 0.00 86 1015.5
20260509034804 44 61 0.0 0.0 0.00 0.00 0.00 84 1015.4
20260509034302 44 61 0.0 0.0 0.00 0.00 0.00 85 1015.5
20260509033759 44 61 0.0 0.0 0.00 0.00 0.00 86 1015.6
20260509033256 44 59 0.0 0.0 0.00 0.00 0.00 85 1015.6
20260509032753 44 59 0.0 0.0 0.00 0.00 0.00 84 1015.6
20260509032250 45 59 0.0 0.0 0.00 0.00 0.00 83 1015.5
20260509031747 45 59 0.0 0.0 0.00 0.00 0.00 81 1015.5
20260509031245 46 59 0.0 0.0 0.00 0.00 0.00 79 1015.7
20260509030743 46 60 0.0 0.0 0.00 0.00 0.00 76 1015.4
20260509030240 45 60 0.0 0.0 0.00 0.00 0.00 78 1015.4
20260509025737 45 60 0.0 0.0 0.00 0.00 0.00 80 1015.6
20260509025232 45 60 0.0 0.0 0.00 0.00 0.00 83 1015.4
20260509024728 45 60 0.0 0.0 0.00 0.00 0.00 83 1015.6
20260509024224 45 60 0.0 0.0 0.00 0.00 0.00 86 1015.6
20260509023721 46 60 0.0 0.0 0.00 0.00 0.00 84 1015.6
20260509023219 46 60 0.0 0.0 0.00 0.00 0.00 84 1015.6
20260509022714 46 60 0.0 0.0 0.00 0.00 0.00 82 1015.6
20260509022213 46 60 0.0 0.0 0.00 0.00 0.00 80 1015.6
20260509021709 46 60 0.0 0.0 0.00 0.00 0.00 82 1015.6
20260509021207 46 60 0.0 0.0 0.00 0.00 0.00 83 1015.8
20260509020705 47 60 0.0 0.0 0.00 0.00 0.00 83 1015.5
20260509020201 47 60 0.0 0.0 0.00 0.00 0.00 79 1015.6
20260509015700 47 60 0.0 0.0 0.00 0.00 0.00 79 1015.8
20260509015157 47 60 0.0 0.0 0.00 0.00 0.00 81 1015.9
20260509014654 47 60 0.0 0.0 0.00 0.00 0.00 80 1015.7
20260509014150 47 60 0.0 0.0 0.00 0.00 0.00 79 1015.9
20260509013647 47 60 0.0 0.0 0.00 0.00 0.00 78 1015.8
20260509013143 47 63 0.0 0.0 0.00 0.00 0.00 79 1015.7
20260509012639 47 63 0.0 0.0 0.00 0.00 0.00 75 1015.5
20260509012137 47 63 0.0 0.0 0.00 0.00 0.00 77 1015.4
20260509011635 46 62 0.0 0.0 0.00 0.00 0.00 81 1015.3
20260509011132 46 82 0.0 0.0 0.00 0.00 0.00 80 1015.1
20260509010629 46 82 0.0 0.0 0.00 0.00 0.00 80 1015.2
20260509010125 47 82 0.0 0.0 0.00 0.00 0.00 75 1015.3
20260509005623 47 82 0.0 0.0 0.00 0.00 0.00 72 1015.3
20260509005119 47 82 0.0 0.0 0.00 0.00 0.00 72 1015.5
20260509004615 47 82 0.0 0.0 0.00 0.00 0.00 72 1015.4
20260509004112 48 82 0.0 0.0 0.00 0.00 0.00 71 1015.3
20260509003611 48 82 0.0 0.0 0.00 0.00 0.00 75 1015.4
20260509003108 49 82 0.0 0.0 0.00 0.00 0.00 73 1015.4
20260509002605 49 82 0.0 0.0 0.00 0.00 0.00 71 1015.1
20260509002102 49 82 0.0 0.0 0.00 0.00 0.00 68 1015.4
20260509001600 50 82 0.0 0.0 0.00 0.00 0.00 67 1015.6
20260509001055 50 82 0.0 0.0 0.00 0.00 0.00 69 1015.6
20260509000554 50 82 0.0 0.0 0.00 0.00 0.00 67 1015.5
20260509000050 51 82 0.0 0.0 0.00 0.00 0.00 67 1015.4
20260508235548 51 82 0.0 0.0 0.00 0.00 0.00 65 1015.3
20260508235044 51 82 0.0 0.0 0.00 0.00 0.00 66 1015.4